,,Stat5,,Stat1,,Stat2,,Stat3,,Stat4,,Wind1,,Wind1,
time,status,PA1M_AVG,status,PR1M_SUM,status,RH1M_AVG,status,SR1M_AVG,status,TA1M_AVG,status,W1dAve1m,status,W1sAve1m,
2002-01-11, 00:00:01,VALID,919.119,VALID,0,VALID,88.0548,VALID,-0.118866,VALID,20.8841,VALID,116,VALID,0.448691,
2002-01-11, 00:01:00,VALID,919.098,VALID,0,VALID,87.4673,VALID,-0.101885,VALID,20.8804,VALID,136,VALID,0.232052,
2002-01-11, 00:02:01,VALID,919.096,VALID,0,VALID,87.7789,VALID,-0.101885,VALID,20.9124,VALID,95,VALID,0.179487,
2002-01-11, 00:03:01,VALID,919.115,VALID,0,VALID,89.0085,VALID,-0.0679233,VALID,20.9509,VALID,20,VALID,0.803632,
2002-01-11, 00:04:00,VALID,919.121,VALID,0,VALID,89.9368,VALID,-0.0849042,VALID,20.942,VALID,15,VALID,0.671053,
2002-01-11, 00:05:00,VALID,919.107,VALID,0,VALID,90.0512,VALID,-0.101885,VALID,20.8898,VALID,11,VALID,0.187309,
2002-01-11, 00:06:00,VALID,919.088,VALID,0,VALID,89.362,VALID,-0.101885,VALID,20.8284,VALID,10,VALID,0.0888672,
2002-01-11, 00:07:00,VALID,919.052,VALID,0,VALID,89.32,VALID,-0.0339617,VALID,20.805,VALID,255,VALID,0.502804,
2002-01-11, 00:08:00,VALID,919.019,VALID,0,VALID,89.2234,VALID,0,VALID,20.8115,VALID,195,VALID,0.535567,
2002-01-11, 00:09:00,VALID,919.003,VALID,0,VALID,89.5693,VALID,0,VALID,20.8115,VALID,184,VALID,0.587271,
2002-01-11, 00:10:00,VALID,918.995,VALID,0,VALID,89.9037,VALID,-0.0169808,VALID,20.7921,VALID,195,VALID,0.641036,
2002-01-11, 00:11:00,VALID,918.994,VALID,0,VALID,89.9686,VALID,-0.0169808,VALID,20.7563,VALID,204,VALID,0.622944,
2002-01-11, 00:12:00,VALID,918.986,VALID,0,VALID,89.685,VALID,0,VALID,20.7401,VALID,197,VALID,0.678168,
2002-01-11, 00:13:00,VALID,918.983,VALID,0,VALID,89.2755,VALID,0,VALID,20.7337,VALID,231,VALID,0.426098,
2002-01-11, 00:14:00,VALID,918.989,VALID,0,VALID,89.0645,VALID,0.0339617,VALID,20.759,VALID,230,VALID,0.0901786,
2002-01-11, 00:15:01,VALID,918.989,VALID,0,VALID,89.9508,VALID,0,VALID,20.7821,VALID,8,VALID,0.818873,
2002-01-11, 00:16:01,VALID,918.991,VALID,0,VALID,90.7951,VALID,-0.0339617,VALID,20.7859,VALID,20,VALID,0.954181,
2002-01-11, 00:17:01,VALID,918.988,VALID,0,VALID,91.071,VALID,-0.0169808,VALID,20.7081,VALID,32,VALID,0.614309,
2002-01-11, 00:18:01,VALID,918.975,VALID,0,VALID,91.2173,VALID,0,VALID,20.6465,VALID,59,VALID,0.68201,
2002-01-11, 00:19:00,VALID,918.961,VALID,0,VALID,91.2554,VALID,0,VALID,20.6042,VALID,71,VALID,0.291797,
2002-01-11, 00:20:01,VALID,918.957,VALID,0,VALID,91.3076,VALID,0,VALID,20.5856,VALID,125,VALID,0.412829,
2002-01-11, 00:21:00,VALID,918.94,VALID,0,VALID,90.551,VALID,0,VALID,20.559,VALID,140,VALID,0.497179,
2002-01-11, 00:22:01,VALID,918.943,VALID,0,VALID,89.8859,VALID,-0.0509425,VALID,20.5366,VALID,140,VALID,0.232639,
2002-01-11, 00:23:00,VALID,918.945,VALID,0,VALID,89.4103,VALID,-0.0169808,VALID,20.5622,VALID,140,VALID,0.156044,
2002-01-11, 00:24:00,VALID,918.952,VALID,0,VALID,89.2285,VALID,0,VALID,20.5953,VALID,140,VALID,0.00334821,
2002-01-11, 00:25:00,VALID,918.957,VALID,0,VALID,89.5362,VALID,0,VALID,20.6306,VALID,140,VALID,0,
2002-01-11, 00:26:00,VALID,918.97,VALID,0,VALID,90.7061,VALID,0,VALID,20.6855,VALID,140,VALID,0,
2002-01-11, 00:27:01,VALID,918.983,VALID,0,VALID,91.0126,VALID,-0.0169808,VALID,20.7049,VALID,140,VALID,0,
2002-01-11, 00:28:01,VALID,918.995,VALID,0,VALID,90.4645,VALID,0,VALID,20.6874,VALID,150,VALID,0.217773,
2002-01-11, 00:29:00,VALID,919.01,VALID,0,VALID,90.0423,VALID,0.0169808,VALID,20.6857,VALID,177,VALID,0.387891,
2002-01-11, 00:30:00,VALID,919.005,VALID,0,VALID,89.3264,VALID,0.0169808,VALID,20.6947,VALID,214,VALID,0.640831,
2002-01-11, 00:31:01,VALID,919.01,VALID,0,VALID,88.1642,VALID,-0.0169808,VALID,20.7762,VALID,245,VALID,0.66139,
2002-01-11, 00:32:01,VALID,919,VALID,0,VALID,87.9022,VALID,0.0169808,VALID,20.8632,VALID,300,VALID,0.307221,
2002-01-11, 00:33:01,VALID,919.022,VALID,0,VALID,89.0085,VALID,0,VALID,20.9049,VALID,25,VALID,0.184028,
2002-01-11, 00:34:01,VALID,919.034,VALID,0,VALID,89.727,VALID,0,VALID,20.9248,VALID,25,VALID,0.0551339,
2002-01-11, 00:35:01,VALID,919.035,VALID,0,VALID,90.261,VALID,-0.0339617,VALID,20.9151,VALID,25,VALID,0,
2002-01-11, 00:36:01,VALID,919.026,VALID,0,VALID,90.4276,VALID,-0.0169808,VALID,20.8863,VALID,100,VALID,0.216639,
2002-01-11, 00:37:01,VALID,919.016,VALID,0,VALID,90.4251,VALID,-0.0339617,VALID,20.8274,VALID,146,VALID,0.507813,
2002-01-11, 00:38:01,VALID,919.009,VALID,0,VALID,90.3564,VALID,0.0339617,VALID,20.7986,VALID,145,VALID,0.289679,
2002-01-11, 00:39:01,VALID,919.01,VALID,0,VALID,90.4009,VALID,0,VALID,20.7665,VALID,147,VALID,0.0809832,
2002-01-11, 00:40:01,VALID,919.014,VALID,0,VALID,90.5789,VALID,0,VALID,20.7571,VALID,147,VALID,0,
2002-01-11, 00:41:01,VALID,918.997,VALID,0,VALID,90.6234,VALID,0,VALID,20.7315,VALID,147,VALID,0,
2002-01-11, 00:42:01,VALID,918.997,VALID,0,VALID,90.4098,VALID,-0.0169808,VALID,20.7121,VALID,147,VALID,0,
2002-01-11, 00:43:01,VALID,918.991,VALID,0,VALID,90.2165,VALID,0,VALID,20.7022,VALID,145,VALID,0.3106,
2002-01-11, 00:44:01,VALID,918.991,VALID,0,VALID,90.4124,VALID,0,VALID,20.689,VALID,150,VALID,0.732813,
2002-01-11, 00:45:01,VALID,918.969,VALID,0,VALID,89.9864,VALID,0,VALID,20.686,VALID,148,VALID,0.723067,
2002-01-11, 00:46:01,VALID,918.95,VALID,0,VALID,89.6723,VALID,0,VALID,20.6793,VALID,156,VALID,0.723395,
2002-01-11, 00:47:01,VALID,918.93,VALID,0,VALID,89.5985,VALID,0,VALID,20.6992,VALID,158,VALID,0.427426,
2002-01-11, 00:48:01,VALID,918.923,VALID,0,VALID,90.1275,VALID,0,VALID,20.7116,VALID,142,VALID,0.26837,
2002-01-11, 00:49:01,VALID,918.933,VALID,0,VALID,90.3068,VALID,-0.0169808,VALID,20.7119,VALID,139,VALID,0.0744141,
2002-01-11, 00:50:01,VALID,918.93,VALID,0,VALID,90.7519,VALID,0,VALID,20.7078,VALID,139,VALID,0.00390625,
2002-01-11, 00:51:01,VALID,918.923,VALID,0,VALID,91.0939,VALID,0,VALID,20.7151,VALID,139,VALID,0.102865,
2002-01-11, 00:52:01,VALID,918.917,VALID,0,VALID,91.5059,VALID,-0.0169808,VALID,20.6957,VALID,103,VALID,0.116319,
2002-01-11, 00:53:01,VALID,918.927,VALID,0,VALID,91.9116,VALID,0,VALID,20.686,VALID,48,VALID,0.468544,
2002-01-11, 00:54:00,VALID,918.92,VALID,0,VALID,91.7374,VALID,0.0169808,VALID,20.6478,VALID,48,VALID,0.107143,
2002-01-11, 00:55:00,VALID,918.917,VALID,0,VALID,91.7717,VALID,0,VALID,20.6149,VALID,48,VALID,0,
2002-01-11, 00:56:00,VALID,918.92,VALID,0,VALID,91.9497,VALID,-0.0169808,VALID,20.5955,VALID,48,VALID,0,
2002-01-11, 00:57:00,VALID,918.907,VALID,0,VALID,91.9802,VALID,0.0169808,VALID,20.5727,VALID,37,VALID,0.311472,
2002-01-11, 00:58:00,VALID,918.893,VALID,0,VALID,92.4037,VALID,0,VALID,20.5501,VALID,25,VALID,1.21217,
2002-01-11, 00:59:00,VALID,918.895,VALID,0,VALID,92.0858,VALID,0,VALID,20.5274,VALID,20,VALID,0.949414,
2002-01-11, 01:00:00,VALID,918.881,VALID,0,VALID,91.3076,VALID,0,VALID,20.5083,VALID,345,VALID,0.407895,
2002-01-11, 01:01:00,VALID,918.861,VALID,0,VALID,89.891,VALID,0,VALID,20.56,VALID,270,VALID,0.604852,
2002-01-11, 01:02:00,VALID,918.828,VALID,0,VALID,88.9411,VALID,0,VALID,20.651,VALID,258,VALID,0.438133,
2002-01-11, 01:03:00,VALID,918.812,VALID,0,VALID,88.7911,VALID,-0.0169808,VALID,20.7051,VALID,271,VALID,0.267361,
2002-01-11, 01:04:00,VALID,918.784,VALID,0,VALID,88.7071,VALID,0,VALID,20.7474,VALID,261,VALID,0.364509,
2002-01-11, 01:05:00,VALID,918.783,VALID,0,VALID,88.449,VALID,0,VALID,20.7832,VALID,254,VALID,0.4375,
2002-01-11, 01:06:00,VALID,918.771,VALID,0,VALID,87.8679,VALID,0.0169808,VALID,20.7991,VALID,245,VALID,0.717694,
2002-01-11, 01:07:00,VALID,918.735,VALID,0,VALID,88.2099,VALID,0,VALID,20.8128,VALID,243,VALID,1.04054,
2002-01-11, 01:08:00,VALID,918.713,VALID,0,VALID,88.0014,VALID,0.0169808,VALID,20.8026,VALID,246,VALID,1.11287,
2002-01-11, 01:09:00,VALID,918.696,VALID,0,VALID,88.2684,VALID,0.0169808,VALID,20.7959,VALID,253,VALID,0.412348,
2002-01-11, 01:10:00,VALID,918.701,VALID,0,VALID,89.053,VALID,0,VALID,20.7929,VALID,179,VALID,0.206209,
2002-01-11, 01:11:00,VALID,918.7,VALID,0,VALID,90.1262,VALID,0,VALID,20.7869,VALID,91,VALID,0.475535,
2002-01-11, 01:12:00,VALID,918.719,VALID,0,VALID,90.2165,VALID,0.0169808,VALID,20.6989,VALID,74,VALID,0.294271,
2002-01-11, 01:13:00,VALID,918.705,VALID,0,VALID,90.5039,VALID,0,VALID,20.6375,VALID,73,VALID,0.22234,
2002-01-11, 01:14:00,VALID,918.687,VALID,0,VALID,90.771,VALID,0.0169808,VALID,20.6149,VALID,71,VALID,0.00758929,
2002-01-11, 01:15:00,VALID,918.664,VALID,0,VALID,91.0329,VALID,0.0169808,VALID,20.5824,VALID,77,VALID,0.440584,
2002-01-11, 01:16:00,VALID,918.656,VALID,0,VALID,91.071,VALID,0.0169808,VALID,20.5274,VALID,87,VALID,0.552998,
2002-01-11, 01:17:00,VALID,918.635,VALID,0,VALID,91.3025,VALID,0,VALID,20.4854,VALID,108,VALID,0.521382,
2002-01-11, 01:18:00,VALID,918.605,VALID,0,VALID,91.4296,VALID,0.0169808,VALID,20.4728,VALID,111,VALID,0.392736,
2002-01-11, 01:19:00,VALID,918.565,VALID,0,VALID,91.5059,VALID,0.0339617,VALID,20.4701,VALID,111,VALID,0.19375,
2002-01-11, 01:20:00,VALID,918.539,VALID,0,VALID,91.2809,VALID,0,VALID,20.4631,VALID,111,VALID,0,
2002-01-11, 01:21:00,VALID,918.536,VALID,0,VALID,91.1448,VALID,0.0169808,VALID,20.4502,VALID,111,VALID,0,
2002-01-11, 01:22:00,VALID,918.537,VALID,0,VALID,91.7653,VALID,0,VALID,20.4666,VALID,111,VALID,0,
2002-01-11, 01:23:00,VALID,918.535,VALID,0,VALID,91.9014,VALID,0,VALID,20.4723,VALID,111,VALID,0,
2002-01-11, 01:24:00,VALID,918.525,VALID,0,VALID,92.4253,VALID,0,VALID,20.4658,VALID,100,VALID,0.275,
2002-01-11, 01:25:00,VALID,918.537,VALID,0,VALID,91.6191,VALID,0.0339617,VALID,20.4303,VALID,93,VALID,0.561914,
2002-01-11, 01:26:00,VALID,918.521,VALID,0,VALID,91.6662,VALID,0,VALID,20.3985,VALID,93,VALID,0.366186,
2002-01-11, 01:27:00,VALID,918.53,VALID,0,VALID,92.3236,VALID,0.0169808,VALID,20.4208,VALID,93,VALID,0.443051,
2002-01-11, 01:28:00,VALID,918.513,VALID,0,VALID,92.082,VALID,0,VALID,20.3791,VALID,94,VALID,0.304276,
2002-01-11, 01:29:00,VALID,918.484,VALID,0,VALID,92.5118,VALID,0,VALID,20.3662,VALID,110,VALID,0.264844,
2002-01-11, 01:30:00,VALID,918.45,VALID,0,VALID,92.7839,VALID,0,VALID,20.3406,VALID,133,VALID,0.260691,
2002-01-11, 01:31:00,VALID,918.433,VALID,0,VALID,92.9886,VALID,0,VALID,20.3304,VALID,134,VALID,0.439556,
2002-01-11, 01:32:00,VALID,918.398,VALID,0,VALID,93.0637,VALID,0.0169808,VALID,20.3043,VALID,125,VALID,0.512458,
2002-01-11, 01:33:00,VALID,918.374,VALID,0,VALID,92.864,VALID,0,VALID,20.2921,VALID,109,VALID,0.608941,
2002-01-11, 01:34:00,VALID,918.362,VALID,0,VALID,92.6008,VALID,0.0169808,VALID,20.2623,VALID,102,VALID,0.867634,
2002-01-11, 01:35:00,VALID,918.346,VALID,0,VALID,93.2073,VALID,0.0169808,VALID,20.2886,VALID,95,VALID,0.820685,
2002-01-11, 01:36:00,VALID,918.322,VALID,0,VALID,92.6631,VALID,0,VALID,20.2628,VALID,109,VALID,0.953758,
2002-01-11, 01:37:00,VALID,918.295,VALID,0,VALID,92.8399,VALID,0,VALID,20.2499,VALID,120,VALID,0.762458,
2002-01-11, 01:38:00,VALID,918.276,VALID,0,VALID,92.967,VALID,-0.0169808,VALID,20.2628,VALID,124,VALID,1.09971,
2002-01-11, 01:39:00,VALID,918.266,VALID,0,VALID,93.0815,VALID,-0.0339617,VALID,20.2596,VALID,117,VALID,0.551639,
2002-01-11, 01:40:00,VALID,918.251,VALID,0,VALID,93.0217,VALID,-0.0339617,VALID,20.2568,VALID,129,VALID,0.872533,
2002-01-11, 01:41:00,VALID,918.22,VALID,0,VALID,92.9111,VALID,0,VALID,20.2469,VALID,130,VALID,1.02632,
2002-01-11, 01:42:00,VALID,918.217,VALID,0,VALID,93.1247,VALID,-0.0509425,VALID,20.2372,VALID,117,VALID,1.11979,
2002-01-11, 01:43:00,VALID,918.226,VALID,0,VALID,93.1272,VALID,-0.0849042,VALID,20.221,VALID,118,VALID,1.09291,
2002-01-11, 01:44:00,VALID,918.201,VALID,0,VALID,93.0929,VALID,-0.0339617,VALID,20.2051,VALID,119,VALID,0.822098,
2002-01-11, 01:45:00,VALID,918.175,VALID,0,VALID,92.9301,VALID,-0.0509425,VALID,20.1892,VALID,117,VALID,1.12685,
2002-01-11, 01:46:00,VALID,918.138,VALID,0,VALID,92.9034,VALID,-0.0849042,VALID,20.1726,VALID,129,VALID,1.07981,
2002-01-11, 01:47:00,VALID,918.107,VALID,0,VALID,92.9479,VALID,-0.0679233,VALID,20.1766,VALID,124,VALID,1.15234,
2002-01-11, 01:48:00,VALID,918.071,VALID,0,VALID,92.9924,VALID,-0.0339617,VALID,20.1659,VALID,112,VALID,1.35452,
2002-01-11, 01:49:00,VALID,918.035,VALID,0,VALID,93.1311,VALID,-0.0509425,VALID,20.1567,VALID,124,VALID,1.45801,
2002-01-11, 01:50:00,VALID,917.98,VALID,0,VALID,93.3828,VALID,-0.0509425,VALID,20.1438,VALID,118,VALID,0.681743,
2002-01-11, 01:51:00,VALID,917.941,VALID,0,VALID,93.5774,VALID,-0.0679233,VALID,20.1147,VALID,112,VALID,0.917101,
2002-01-11, 01:52:00,VALID,917.93,VALID,0,VALID,93.7554,VALID,-0.0679233,VALID,20.0921,VALID,102,VALID,0.549045,
2002-01-11, 01:53:00,VALID,917.927,VALID,0,VALID,93.964,VALID,-0.0339617,VALID,20.0859,VALID,78,VALID,0.680099,
2002-01-11, 01:54:00,VALID,917.919,VALID,0,VALID,93.9194,VALID,-0.0339617,VALID,20.06,VALID,100,VALID,0.912277,
2002-01-11, 01:55:00,VALID,917.895,VALID,0,VALID,93.8546,VALID,-0.0169808,VALID,20.024,VALID,104,VALID,1.0127,
2002-01-11, 01:56:00,VALID,917.871,VALID,0,VALID,93.9131,VALID,-0.0339617,VALID,20.0342,VALID,121,VALID,1.44211,
2002-01-11, 01:57:00,VALID,917.853,VALID,0,VALID,93.7974,VALID,-0.0169808,VALID,20.0307,VALID,122,VALID,1.23664,
2002-01-11, 01:58:00,VALID,917.832,VALID,0,VALID,93.5901,VALID,-0.0509425,VALID,20.0334,VALID,122,VALID,1.49465,
2002-01-11, 01:59:00,VALID,917.826,VALID,0,VALID,93.4833,VALID,-0.0169808,VALID,20.0498,VALID,137,VALID,1.45352,
2002-01-11, 02:00:00,VALID,917.814,VALID,0,VALID,93.5125,VALID,0,VALID,20.0724,VALID,127,VALID,1.18586,
2002-01-11, 02:01:00,VALID,917.804,VALID,0,VALID,93.4413,VALID,-0.0339617,VALID,20.0724,VALID,140,VALID,1.83326,
2002-01-11, 02:02:00,VALID,917.786,VALID,0,VALID,93.3587,VALID,-0.0169808,VALID,20.0861,VALID,97,VALID,1.26246,
2002-01-11, 02:03:00,VALID,917.775,VALID,0,VALID,93.4515,VALID,-0.0849042,VALID,20.0894,VALID,94,VALID,1.05035,
2002-01-11, 02:04:00,VALID,917.749,VALID,0,VALID,93.4553,VALID,-0.0509425,VALID,20.0829,VALID,107,VALID,1.45335,
2002-01-11, 02:05:00,VALID,917.719,VALID,0,VALID,93.6511,VALID,-0.0679233,VALID,20.0762,VALID,90,VALID,0.679071,
2002-01-11, 02:06:00,VALID,917.719,VALID,0,VALID,93.6638,VALID,-0.0169808,VALID,20.0662,VALID,110,VALID,0.647593,
2002-01-11, 02:07:00,VALID,917.72,VALID,0,VALID,93.7999,VALID,-0.0509425,VALID,20.0533,VALID,111,VALID,0.691301,
2002-01-11, 02:08:00,VALID,917.717,VALID,0,VALID,93.9741,VALID,-0.0339617,VALID,20.0605,VALID,49,VALID,0.623972,
2002-01-11, 02:09:00,VALID,917.7,VALID,0,VALID,94.1941,VALID,-0.0509425,VALID,20.0411,VALID,46,VALID,0.919398,
2002-01-11, 02:10:00,VALID,917.695,VALID,0,VALID,94.3098,VALID,-0.0339617,VALID,20.0081,VALID,76,VALID,1.03742,
2002-01-11, 02:11:00,VALID,917.689,VALID,0,VALID,94.2551,VALID,-0.0509425,VALID,19.9927,VALID,123,VALID,1.22163,
2002-01-11, 02:12:00,VALID,917.683,VALID,0,VALID,94.4166,VALID,-0.0849042,VALID,19.9895,VALID,43,VALID,1.34071,
2002-01-11, 02:13:00,VALID,917.677,VALID,0,VALID,94.4764,VALID,-0.0679233,VALID,19.9827,VALID,53,VALID,1.30236,
2002-01-11, 02:14:00,VALID,917.642,VALID,0,VALID,94.4675,VALID,-0.0339617,VALID,19.9599,VALID,50,VALID,1.55,
2002-01-11, 02:15:00,VALID,917.627,VALID,0,VALID,94.4675,VALID,-0.0679233,VALID,19.9639,VALID,47,VALID,1.27426,
2002-01-11, 02:16:00,VALID,917.616,VALID,0,VALID,94.3289,VALID,-0.0679233,VALID,19.9631,VALID,72,VALID,1.59312,
2002-01-11, 02:17:00,VALID,917.606,VALID,0,VALID,94.1229,VALID,-0.0849042,VALID,19.9606,VALID,58,VALID,1.85711,
2002-01-11, 02:18:00,VALID,917.586,VALID,0,VALID,93.908,VALID,-0.0509425,VALID,19.9795,VALID,76,VALID,1.19405,
2002-01-11, 02:19:00,VALID,917.566,VALID,0,VALID,93.5596,VALID,-0.0679233,VALID,20.0024,VALID,69,VALID,1.23145,
2002-01-11, 02:20:00,VALID,917.539,VALID,0,VALID,93.4299,VALID,-0.101885,VALID,20.0282,VALID,88,VALID,1.13076,
2002-01-11, 02:21:00,VALID,917.519,VALID,0,VALID,93.4477,VALID,-0.0509425,VALID,20.0506,VALID,78,VALID,0.777778,
2002-01-11, 02:22:00,VALID,917.51,VALID,0,VALID,93.5876,VALID,-0.0339617,VALID,20.0603,VALID,57,VALID,0.911675,
2002-01-11, 02:23:00,VALID,917.484,VALID,0,VALID,93.557,VALID,-0.0509425,VALID,20.0508,VALID,49,VALID,1.24671,
2002-01-11, 02:24:00,VALID,917.474,VALID,0,VALID,93.5977,VALID,0,VALID,20.0344,VALID,60,VALID,1.27656,
2002-01-11, 02:25:00,VALID,917.463,VALID,0,VALID,93.6956,VALID,-0.0169808,VALID,20.0315,VALID,88,VALID,1.1957,
2002-01-11, 02:26:00,VALID,917.428,VALID,0,VALID,93.8826,VALID,-0.0169808,VALID,20.0153,VALID,75,VALID,1.31711,
2002-01-11, 02:27:00,VALID,917.398,VALID,0,VALID,94.0402,VALID,-0.0169808,VALID,19.9991,VALID,97,VALID,1.00966,
2002-01-11, 02:28:00,VALID,917.363,VALID,0,VALID,94.0924,VALID,-0.0339617,VALID,19.9733,VALID,89,VALID,0.992393,
2002-01-11, 02:29:00,VALID,917.341,VALID,0,VALID,94.1674,VALID,-0.0169808,VALID,19.9668,VALID,41,VALID,1.08301,
2002-01-11, 02:30:00,VALID,917.333,VALID,0,VALID,94.2081,VALID,-0.0339617,VALID,19.9601,VALID,36,VALID,1.08532,
2002-01-11, 02:31:00,VALID,917.332,VALID,0,VALID,94.203,VALID,-0.0509425,VALID,19.9574,VALID,53,VALID,0.936266,
2002-01-11, 02:32:00,VALID,917.303,VALID,0,VALID,94.2539,VALID,-0.0169808,VALID,19.9539,VALID,57,VALID,0.883446,
2002-01-11, 02:33:00,VALID,917.304,VALID,0,VALID,94.259,VALID,-0.0339617,VALID,19.9373,VALID,57,VALID,0.853516,
2002-01-11, 02:34:00,VALID,917.306,VALID,0,VALID,94.2615,VALID,-0.0169808,VALID,19.9345,VALID,52,VALID,1.01406,
2002-01-11, 02:35:00,VALID,917.339,VALID,0,VALID,94.0301,VALID,-0.0679233,VALID,19.9482,VALID,55,VALID,1.69103,
2002-01-11, 02:36:00,VALID,917.326,VALID,0,VALID,93.9334,VALID,-0.0169808,VALID,19.9539,VALID,21,VALID,1.50063,
2002-01-11, 02:37:00,VALID,917.319,VALID,0,VALID,93.7897,VALID,0,VALID,19.9728,VALID,19,VALID,0.887035,
2002-01-11, 02:38:00,VALID,917.332,VALID,0,VALID,93.674,VALID,0,VALID,19.9865,VALID,59,VALID,0.903577,
2002-01-11, 02:39:00,VALID,917.323,VALID,0,VALID,93.5049,VALID,-0.0509425,VALID,19.9929,VALID,40,VALID,0.851181,
2002-01-11, 02:40:00,VALID,917.354,VALID,0,VALID,93.571,VALID,-0.0339617,VALID,20.0024,VALID,28,VALID,1.28557,
2002-01-11, 02:41:00,VALID,917.374,VALID,0,VALID,93.5278,VALID,-0.0169808,VALID,20.0151,VALID,25,VALID,0.808799,
2002-01-11, 02:42:00,VALID,917.389,VALID,0,VALID,93.5825,VALID,-0.0339617,VALID,20.0218,VALID,31,VALID,1.02083,
2002-01-11, 02:43:00,VALID,917.39,VALID,0,VALID,93.2607,VALID,-0.0169808,VALID,20.0282,VALID,40,VALID,1.30068,
2002-01-11, 02:44:00,VALID,917.384,VALID,0,VALID,93.0624,VALID,-0.0339617,VALID,20.0344,VALID,50,VALID,0.929018,
2002-01-11, 02:45:00,VALID,917.359,VALID,0,VALID,92.9746,VALID,-0.0169808,VALID,20.0508,VALID,54,VALID,0.621711,
2002-01-11, 02:46:00,VALID,917.351,VALID,0,VALID,92.8449,VALID,-0.0509425,VALID,20.0503,VALID,53,VALID,0.84375,
2002-01-11, 02:47:00,VALID,917.362,VALID,0,VALID,92.9339,VALID,-0.0509425,VALID,20.0672,VALID,47,VALID,0.976563,
2002-01-11, 02:48:00,VALID,917.351,VALID,0,VALID,92.7788,VALID,-0.0169808,VALID,20.0538,VALID,44,VALID,0.99641,
2002-01-11, 02:49:00,VALID,917.338,VALID,0,VALID,92.302,VALID,-0.0169808,VALID,20.074,VALID,60,VALID,1.3123,
2002-01-11, 02:50:00,VALID,917.339,VALID,0,VALID,92.0146,VALID,-0.0509425,VALID,20.1122,VALID,55,VALID,1.27488,
2002-01-11, 02:51:00,VALID,917.354,VALID,0,VALID,92.0642,VALID,-0.0169808,VALID,20.1443,VALID,48,VALID,0.946615,
2002-01-11, 02:52:00,VALID,917.35,VALID,0,VALID,91.8531,VALID,-0.0169808,VALID,20.1445,VALID,58,VALID,0.875868,
2002-01-11, 02:53:00,VALID,917.328,VALID,0,VALID,91.5784,VALID,0,VALID,20.148,VALID,37,VALID,0.974507,
2002-01-11, 02:54:00,VALID,917.31,VALID,0,VALID,91.6369,VALID,-0.0169808,VALID,20.1801,VALID,22,VALID,0.627009,
2002-01-11, 02:55:00,VALID,917.304,VALID,0,VALID,91.8772,VALID,-0.0169808,VALID,20.1997,VALID,15,VALID,0.967773,
2002-01-11, 02:56:00,VALID,917.295,VALID,0,VALID,91.7259,VALID,-0.0169808,VALID,20.1763,VALID,16,VALID,1.58674,
2002-01-11, 02:57:00,VALID,917.278,VALID,0,VALID,91.4805,VALID,-0.0509425,VALID,20.1768,VALID,16,VALID,1.31764,
2002-01-11, 02:58:00,VALID,917.269,VALID,0,VALID,91.3839,VALID,-0.0849042,VALID,20.1932,VALID,24,VALID,1.28269,
2002-01-11, 02:59:00,VALID,917.266,VALID,0,VALID,91.3851,VALID,-0.0679233,VALID,20.1994,VALID,30,VALID,1.65234,
2002-01-11, 03:00:00,VALID,917.251,VALID,0,VALID,91.0787,VALID,-0.0169808,VALID,20.2029,VALID,50,VALID,1.6433,
2002-01-11, 03:01:00,VALID,917.237,VALID,0,VALID,90.8968,VALID,-0.0169808,VALID,20.2285,VALID,56,VALID,1.08203,
2002-01-11, 03:02:00,VALID,917.209,VALID,0,VALID,90.9858,VALID,0,VALID,20.2449,VALID,56,VALID,1.05342,
2002-01-11, 03:03:00,VALID,917.194,VALID,0,VALID,91.1295,VALID,-0.0339617,VALID,20.2519,VALID,37,VALID,1.1569,
2002-01-11, 03:04:00,VALID,917.197,VALID,0,VALID,91.5517,VALID,-0.0509425,VALID,20.2221,VALID,17,VALID,0.923661,
2002-01-11, 03:05:00,VALID,917.197,VALID,0,VALID,91.394,VALID,-0.0679233,VALID,20.1833,VALID,18,VALID,1.09784,
2002-01-11, 03:06:00,VALID,917.197,VALID,0,VALID,91.5059,VALID,-0.0509425,VALID,20.187,VALID,27,VALID,0.734586,
2002-01-11, 03:07:00,VALID,917.209,VALID,0,VALID,91.5822,VALID,-0.0169808,VALID,20.1669,VALID,35,VALID,0.78125,
2002-01-11, 03:08:00,VALID,917.214,VALID,0,VALID,91.6865,VALID,0.0509425,VALID,20.1699,VALID,38,VALID,0.660567,
2002-01-11, 03:09:00,VALID,917.215,VALID,0,VALID,91.4347,VALID,0.0509425,VALID,20.1537,VALID,13,VALID,1.36966,
2002-01-11, 03:10:00,VALID,917.204,VALID,0,VALID,91.2211,VALID,0.0679233,VALID,20.1527,VALID,67,VALID,0.616982,
2002-01-11, 03:11:00,VALID,917.2,VALID,0,VALID,91.3419,VALID,0.0679233,VALID,20.1666,VALID,64,VALID,0.605674,
2002-01-11, 03:12:00,VALID,917.192,VALID,0,VALID,91.188,VALID,0.0679233,VALID,20.1433,VALID,98,VALID,0.749566,
2002-01-11, 03:13:00,VALID,917.213,VALID,0,VALID,91.4385,VALID,0.0679233,VALID,20.1435,VALID,83,VALID,0.930743,
2002-01-11, 03:14:00,VALID,917.216,VALID,0,VALID,91.3661,VALID,0.0339617,VALID,20.1269,VALID,74,VALID,0.708259,
2002-01-11, 03:15:00,VALID,917.198,VALID,0,VALID,91.2936,VALID,0.0679233,VALID,20.1139,VALID,97,VALID,0.805099,
2002-01-11, 03:16:00,VALID,917.177,VALID,0,VALID,91.155,VALID,0.0679233,VALID,20.1271,VALID,72,VALID,0.649282,
2002-01-11, 03:17:00,VALID,917.175,VALID,0,VALID,91.216,VALID,0.0679233,VALID,20.1462,VALID,46,VALID,1.52405,
2002-01-11, 03:18:00,VALID,917.158,VALID,0,VALID,91.052,VALID,0.0849042,VALID,20.1564,VALID,30,VALID,1.58024,
2002-01-11, 03:19:00,VALID,917.152,VALID,0,VALID,91.1461,VALID,0.0339617,VALID,20.1532,VALID,12,VALID,1.47109,
2002-01-11, 03:20:00,VALID,917.155,VALID,0,VALID,91.3877,VALID,0.0339617,VALID,20.14,VALID,27,VALID,0.903372,
2002-01-11, 03:21:00,VALID,917.121,VALID,0,VALID,91.7145,VALID,0.101885,VALID,20.1303,VALID,44,VALID,0.680339,
2002-01-11, 03:22:00,VALID,917.104,VALID,0,VALID,91.7056,VALID,0.0169808,VALID,20.0953,VALID,41,VALID,1.2793,
2002-01-11, 03:23:00,VALID,917.079,VALID,0,VALID,91.7564,VALID,-0.0679233,VALID,20.0767,VALID,40,VALID,1.04667,
2002-01-11, 03:24:00,VALID,917.049,VALID,0,VALID,91.6089,VALID,0,VALID,20.0667,VALID,58,VALID,1.06473,
2002-01-11, 03:25:00,VALID,917.006,VALID,0,VALID,91.6865,VALID,-0.0169808,VALID,20.0474,VALID,58,VALID,0.84707,
2002-01-11, 03:26:00,VALID,916.981,VALID,0,VALID,91.9713,VALID,-0.0339617,VALID,20.0342,VALID,54,VALID,0.705128,
2002-01-11, 03:27:00,VALID,916.965,VALID,0,VALID,92.007,VALID,-0.0679233,VALID,20.0153,VALID,43,VALID,0.706209,
2002-01-11, 03:28:00,VALID,916.959,VALID,0,VALID,92.3249,VALID,-0.0509425,VALID,19.9997,VALID,30,VALID,0.882607,
2002-01-11, 03:29:00,VALID,916.953,VALID,0,VALID,92.0553,VALID,-0.0679233,VALID,19.9765,VALID,56,VALID,1.63516,
2002-01-11, 03:30:00,VALID,916.944,VALID,0,VALID,92.1621,VALID,-0.0509425,VALID,19.9765,VALID,57,VALID,1.43914,
2002-01-11, 03:31:00,VALID,916.94,VALID,0,VALID,92.41,VALID,-0.0339617,VALID,19.9763,VALID,49,VALID,1.24322,
2002-01-11, 03:32:00,VALID,916.913,VALID,0,VALID,92.3007,VALID,-0.0169808,VALID,19.9606,VALID,38,VALID,1.3296,
2002-01-11, 03:33:00,VALID,916.883,VALID,0,VALID,92.335,VALID,0,VALID,19.9507,VALID,22,VALID,1.25434,
2002-01-11, 03:34:00,VALID,916.874,VALID,0,VALID,92.3185,VALID,-0.0169808,VALID,19.9475,VALID,23,VALID,1.31272,